Terminal Aerodrome Forecast
Issued by NWS Spokane, WA

Home | Current Version | Previous Version | Text Only | Print | Product List | Glossary On
Versions: 1 2 3 4 5 6 7 8 9 10 11 12 13 14
000
FTUS46 KOTX 202320
TAFLWS
TAF
KLWS 202320Z 2100/2124 VRB04KT P6SM BKN200
     FM210200 14004KT P6SM SCT100 BKN150
     FM211600 06005KT P6SM BKN120 OVC150=

USA.gov is the U.S. government's official web portal to all federal, state and local government web resources and services.